sat.trackr.live / text

‹ back to catalog

STARLINK-4500

NORAD 53413 · 2022-097AB

PAYLOAD ACTIVE UNKNOWN

§ Identity

Operator
Country
US
Launch date
2022-08-10
Launch site
AFETR
Launch vehicle
Mass (kg)
RCS (m²)

Purposes: comms

External: N2YO · Heavens-Above · Gunter

§ Orbital elements

Epoch: 2026-09-20T04:28:59.241792Z

Period
95.44 min
Inclination
53.1621°
Eccentricity
0.0001006
Mean motion
15.08833036 rev/d
Perigee alt
539.1 km
Apogee alt
540.5 km
Semi-major
6,917.9 km
B*
3.7815e-6
RAAN
320.3287°
Arg perigee
85.4182°
Mean anomaly
274.6924°
Rev number
22,801

§ Raw data

STARLINK-45001 53413U 22097AB  26263.18679678 -.00000228  00000+0  37815-5 0  99982 53413  53.1621 320.3287 0001006  85.4182 274.6924 15.08833036228010

JSON: /api/v1/satellites/53413 · /tle

For live sub-satellite position, see the globe view (requires WebGL).

§ Visibility from observer

Set your observer location to see the next 7 days of passes ≥ 10°. The values pass through the URL so the page stays shareable.

No JS? Fill the form by hand. The geolocation button needs JavaScript.